Year,Month,Day,Hour,Minute,Value (Times are PST for temperature in C)
2009,05,31,07,21,14.70
2009,05,31,07,22,14.70
2009,05,31,07,23,14.70
2009,05,31,07,24,14.70
2009,05,31,07,25,14.80
2009,05,31,07,26,14.80
2009,05,31,07,27,14.80
2009,05,31,07,28,14.80
2009,05,31,07,29,14.80
2009,05,31,07,30,14.80
2009,05,31,07,31,14.80
2009,05,31,07,32,14.80
2009,05,31,07,33,14.80
2009,05,31,07,34,14.90
2009,05,31,07,35,14.90
2009,05,31,07,36,15.00
2009,05,31,07,37,15.00
2009,05,31,07,38,15.00
2009,05,31,07,39,15.00
2009,05,31,07,40,15.00
2009,05,31,07,41,15.00
2009,05,31,07,42,15.00
2009,05,31,07,43,15.00
2009,05,31,07,44,15.10
2009,05,31,07,45,15.10
2009,05,31,07,46,15.20
2009,05,31,07,47,15.20
2009,05,31,07,48,15.30
2009,05,31,07,49,15.30
2009,05,31,07,50,15.30
2009,05,31,07,51,15.40
2009,05,31,07,52,15.40
2009,05,31,07,53,15.40
2009,05,31,07,54,15.40
2009,05,31,07,55,15.40
2009,05,31,07,56,15.40
2009,05,31,07,57,15.40
2009,05,31,07,58,15.50
2009,05,31,07,59,15.50
2009,05,31,08,00,15.60
2009,05,31,08,01,15.60
2009,05,31,08,02,15.60
2009,05,31,08,03,15.60
2009,05,31,08,04,15.70
2009,05,31,08,05,15.70
2009,05,31,08,06,15.70
2009,05,31,08,07,15.70
2009,05,31,08,08,15.70
2009,05,31,08,09,15.70
2009,05,31,08,10,15.70
2009,05,31,08,11,15.70
2009,05,31,08,12,15.60
2009,05,31,08,13,15.60
2009,05,31,08,14,15.60
2009,05,31,08,15,15.60
2009,05,31,08,16,15.70
2009,05,31,08,17,15.70
2009,05,31,08,18,15.70
2009,05,31,08,19,15.80
2009,05,31,08,20,15.80
2009,05,31,08,21,15.80
2009,05,31,08,22,15.80
2009,05,31,08,23,15.90
2009,05,31,08,24,15.90
2009,05,31,08,25,15.90
2009,05,31,08,26,15.90
2009,05,31,08,27,15.90
2009,05,31,08,28,15.90
2009,05,31,08,29,15.90
2009,05,31,08,30,15.90
2009,05,31,08,31,15.90
2009,05,31,08,32,16.00
2009,05,31,08,33,16.00
2009,05,31,08,34,16.00
2009,05,31,08,35,16.00
2009,05,31,08,36,16.00
2009,05,31,08,37,16.00
2009,05,31,08,38,16.00
2009,05,31,08,39,16.10
2009,05,31,08,40,16.10
2009,05,31,08,41,16.10
2009,05,31,08,42,16.10
2009,05,31,08,43,16.20
2009,05,31,08,44,16.20
2009,05,31,08,45,16.20
2009,05,31,08,46,16.20
2009,05,31,08,47,16.30
2009,05,31,08,48,16.40
2009,05,31,08,49,16.50
2009,05,31,08,50,16.60
2009,05,31,08,51,16.60
2009,05,31,08,52,16.60
2009,05,31,08,53,16.60
2009,05,31,08,54,16.60
2009,05,31,08,55,16.60
2009,05,31,08,56,16.60
2009,05,31,08,57,16.60
2009,05,31,08,58,16.60
2009,05,31,08,59,16.60
2009,05,31,09,00,16.60
2009,05,31,09,01,16.50
2009,05,31,09,02,16.40
2009,05,31,09,03,16.40
2009,05,31,09,04,16.30
2009,05,31,09,05,16.30
2009,05,31,09,06,16.30
2009,05,31,09,07,16.30
2009,05,31,09,08,16.40
2009,05,31,09,09,16.40
2009,05,31,09,10,16.50
2009,05,31,09,11,16.60
2009,05,31,09,12,16.70
2009,05,31,09,13,16.80
2009,05,31,09,14,16.80
2009,05,31,09,15,16.90
2009,05,31,09,16,17.00
2009,05,31,09,17,17.00
2009,05,31,09,18,17.00
2009,05,31,09,19,17.00
2009,05,31,09,20,17.00
2009,05,31,09,21,17.00
2009,05,31,09,22,17.00
2009,05,31,09,23,17.00
2009,05,31,09,24,17.00
2009,05,31,09,25,16.90
2009,05,31,09,26,17.00
2009,05,31,09,27,17.00
2009,05,31,09,28,17.00
2009,05,31,09,29,17.00
2009,05,31,09,30,17.10
2009,05,31,09,31,17.10
2009,05,31,09,32,17.10
2009,05,31,09,33,17.10
2009,05,31,09,34,17.00
2009,05,31,09,35,17.00
2009,05,31,09,36,17.00
2009,05,31,09,37,16.90
2009,05,31,09,38,16.80
2009,05,31,09,39,16.70
2009,05,31,09,40,16.70
2009,05,31,09,41,16.60
2009,05,31,09,42,16.50
2009,05,31,09,43,16.50
2009,05,31,09,44,16.40
2009,05,31,09,45,16.30
2009,05,31,09,46,16.30
2009,05,31,09,47,16.30
2009,05,31,09,48,16.30
2009,05,31,09,49,16.30
2009,05,31,09,50,16.30
2009,05,31,09,51,16.40
2009,05,31,09,52,16.40
2009,05,31,09,53,16.40
2009,05,31,09,54,16.50
2009,05,31,09,55,16.50
2009,05,31,09,56,16.50
2009,05,31,09,57,16.40
2009,05,31,09,58,16.40
2009,05,31,09,59,16.40
2009,05,31,10,00,16.40
2009,05,31,10,01,16.40
2009,05,31,10,02,16.50
2009,05,31,10,03,16.50
2009,05,31,10,04,16.60
2009,05,31,10,05,16.60
2009,05,31,10,06,16.60
2009,05,31,10,07,16.70
2009,05,31,10,08,16.80
2009,05,31,10,09,16.80
2009,05,31,10,10,16.80
2009,05,31,10,11,16.80
2009,05,31,10,12,16.90
2009,05,31,10,13,16.90
2009,05,31,10,14,16.80
2009,05,31,10,15,16.80
2009,05,31,10,16,16.70
2009,05,31,10,17,16.70
2009,05,31,10,18,16.70
2009,05,31,10,19,16.60
2009,05,31,10,20,16.50
2009,05,31,10,21,16.40
2009,05,31,10,22,16.40
2009,05,31,10,23,16.40
2009,05,31,10,24,16.30
2009,05,31,10,25,16.30
2009,05,31,10,26,16.20
2009,05,31,10,27,16.20
2009,05,31,10,28,16.20
2009,05,31,10,29,16.20
2009,05,31,10,30,16.20
2009,05,31,10,31,16.20
2009,05,31,10,32,16.00
2009,05,31,10,33,16.00
2009,05,31,10,34,15.90
2009,05,31,10,35,15.90
2009,05,31,10,36,15.80
2009,05,31,10,37,15.90
2009,05,31,10,38,16.00
2009,05,31,10,39,16.00
2009,05,31,10,40,16.00
2009,05,31,10,41,16.10
2009,05,31,10,42,16.10
2009,05,31,10,43,16.10
2009,05,31,10,44,16.10
2009,05,31,10,45,16.10
2009,05,31,10,46,16.10
2009,05,31,10,47,16.10
2009,05,31,10,48,16.20
2009,05,31,10,49,16.20
2009,05,31,10,50,16.20
2009,05,31,10,51,16.30
2009,05,31,10,52,16.40
2009,05,31,10,53,16.40
2009,05,31,10,54,16.50
2009,05,31,10,55,16.50
2009,05,31,10,56,16.60
2009,05,31,10,57,16.60
2009,05,31,10,58,16.60
2009,05,31,10,59,16.60
2009,05,31,11,00,16.60
2009,05,31,11,01,16.50
2009,05,31,11,02,16.50
2009,05,31,11,03,16.40
2009,05,31,11,04,16.30
2009,05,31,11,05,16.30
2009,05,31,11,06,16.30
2009,05,31,11,07,16.40
2009,05,31,11,08,16.40
2009,05,31,11,09,16.50
2009,05,31,11,10,16.60
2009,05,31,11,11,16.60
2009,05,31,11,12,16.70
2009,05,31,11,13,16.70
2009,05,31,11,14,16.70
2009,05,31,11,15,16.70
2009,05,31,11,16,16.70
2009,05,31,11,17,16.70
2009,05,31,11,18,16.70
2009,05,31,11,19,16.70
2009,05,31,11,20,16.70
2009,05,31,11,21,16.70
2009,05,31,11,22,16.70
2009,05,31,11,23,16.70
2009,05,31,11,24,16.80
2009,05,31,11,25,16.70
2009,05,31,11,26,16.70
2009,05,31,11,27,16.70
2009,05,31,11,28,16.70
2009,05,31,11,29,16.70
2009,05,31,11,30,16.70
2009,05,31,11,31,16.80
2009,05,31,11,32,16.80
2009,05,31,11,33,16.80
2009,05,31,11,34,16.80
2009,05,31,11,35,16.80
2009,05,31,11,36,16.80
2009,05,31,11,37,16.80
2009,05,31,11,38,16.80
2009,05,31,11,39,16.80
2009,05,31,11,40,16.80
2009,05,31,11,41,16.80
2009,05,31,11,42,16.80
2009,05,31,11,43,16.90
2009,05,31,11,44,16.80
2009,05,31,11,45,16.90
2009,05,31,11,46,16.90
2009,05,31,11,47,16.90
2009,05,31,11,48,16.90
2009,05,31,11,49,16.90
2009,05,31,11,50,16.80
2009,05,31,11,51,16.80
2009,05,31,11,52,16.80
2009,05,31,11,53,16.80
2009,05,31,11,54,16.70
2009,05,31,11,55,16.70
2009,05,31,11,56,16.70
2009,05,31,11,57,16.70
2009,05,31,11,58,16.70
2009,05,31,11,59,16.70
2009,05,31,12,00,16.70
2009,05,31,12,01,16.70
2009,05,31,12,02,16.70
2009,05,31,12,03,16.70
2009,05,31,12,04,16.70
2009,05,31,12,05,16.70
2009,05,31,12,06,16.70
2009,05,31,12,07,16.70
2009,05,31,12,08,16.60
2009,05,31,12,09,16.70
2009,05,31,12,10,16.70
2009,05,31,12,11,16.70
2009,05,31,12,12,16.70
2009,05,31,12,13,16.80
2009,05,31,12,14,16.80
2009,05,31,12,15,16.70
2009,05,31,12,16,16.70
2009,05,31,12,17,16.70
2009,05,31,12,18,16.70
2009,05,31,12,19,16.70
2009,05,31,12,20,16.70
2009,05,31,12,21,16.70
2009,05,31,12,22,16.70
2009,05,31,12,23,16.70
2009,05,31,12,24,16.70
2009,05,31,12,25,16.70
2009,05,31,12,26,16.80
2009,05,31,12,27,16.80
2009,05,31,12,28,16.80
2009,05,31,12,29,16.70
2009,05,31,12,30,16.70
2009,05,31,12,31,16.80
2009,05,31,12,32,16.80
2009,05,31,12,33,16.80
2009,05,31,12,34,16.80
2009,05,31,12,35,16.80
2009,05,31,12,36,16.90
2009,05,31,12,37,16.90
2009,05,31,12,38,16.90
2009,05,31,12,39,16.90
2009,05,31,12,40,16.90
2009,05,31,12,41,16.90
2009,05,31,12,42,17.00
2009,05,31,12,43,17.10
2009,05,31,12,44,17.10
2009,05,31,12,45,17.20
2009,05,31,12,46,17.20
2009,05,31,12,47,17.30
2009,05,31,12,48,17.30
2009,05,31,12,49,17.30
2009,05,31,12,50,17.40
2009,05,31,12,51,17.50
2009,05,31,12,52,17.60
2009,05,31,12,53,17.60
2009,05,31,12,54,17.70
2009,05,31,12,55,17.80
2009,05,31,12,56,17.90
2009,05,31,12,57,18.00
2009,05,31,12,58,18.10
2009,05,31,12,59,18.10
2009,05,31,13,00,18.20
2009,05,31,13,01,18.20
2009,05,31,13,02,18.20
2009,05,31,13,03,18.30
2009,05,31,13,04,18.30
2009,05,31,13,05,18.30
2009,05,31,13,06,18.40
2009,05,31,13,07,18.30
2009,05,31,13,08,18.30
2009,05,31,13,09,18.30
2009,05,31,13,10,18.30
2009,05,31,13,11,18.30
2009,05,31,13,12,18.30
2009,05,31,13,13,18.30
2009,05,31,13,14,18.30
2009,05,31,13,15,18.30
2009,05,31,13,16,18.40
2009,05,31,13,17,18.40
2009,05,31,13,18,18.40
2009,05,31,13,19,18.40
2009,05,31,13,20,18.40
2009,05,31,13,21,18.50
2009,05,31,13,22,18.50
2009,05,31,13,23,18.60
2009,05,31,13,24,18.60
2009,05,31,13,25,18.70
2009,05,31,13,26,18.80
2009,05,31,13,27,18.80
2009,05,31,13,28,18.90
2009,05,31,13,29,19.00
2009,05,31,13,30,19.10
2009,05,31,13,31,19.20
2009,05,31,13,32,19.20
2009,05,31,13,33,19.30
2009,05,31,13,34,19.40
2009,05,31,13,35,19.50
2009,05,31,13,36,19.60
2009,05,31,13,37,19.60
2009,05,31,13,38,19.60
2009,05,31,13,39,19.60
2009,05,31,13,40,19.60
2009,05,31,13,41,19.60
2009,05,31,13,42,19.70
2009,05,31,13,43,19.70
2009,05,31,13,44,19.70
2009,05,31,13,45,19.70
2009,05,31,13,46,19.70
2009,05,31,13,47,19.70
2009,05,31,13,48,19.80
2009,05,31,13,49,19.80
2009,05,31,13,50,19.80
2009,05,31,13,51,19.80
2009,05,31,13,52,19.90
2009,05,31,13,53,19.90
2009,05,31,13,54,19.90
2009,05,31,13,55,19.90
2009,05,31,13,56,19.90
2009,05,31,13,57,19.80
2009,05,31,13,58,19.80
2009,05,31,13,59,19.80
2009,05,31,14,00,19.70
2009,05,31,14,01,19.70
2009,05,31,14,02,19.70
2009,05,31,14,03,19.70
2009,05,31,14,04,19.70
2009,05,31,14,05,19.70
2009,05,31,14,06,19.80
2009,05,31,14,07,19.80
2009,05,31,14,08,19.90
2009,05,31,14,09,19.90
2009,05,31,14,10,20.00
2009,05,31,14,11,20.00
2009,05,31,14,12,20.10
2009,05,31,14,13,20.10
2009,05,31,14,14,20.20
2009,05,31,14,15,20.30
2009,05,31,14,16,20.30
2009,05,31,14,17,20.30
2009,05,31,14,18,20.30
2009,05,31,14,19,20.30
2009,05,31,14,20,20.40
2009,05,31,14,21,20.40
2009,05,31,14,22,20.50
2009,05,31,14,23,20.60
2009,05,31,14,24,20.70
2009,05,31,14,25,20.70
2009,05,31,14,26,20.70
2009,05,31,14,27,20.70
2009,05,31,14,28,20.60
2009,05,31,14,29,20.60
2009,05,31,14,30,20.60
2009,05,31,14,31,20.60
2009,05,31,14,32,20.60
2009,05,31,14,33,20.60
2009,05,31,14,34,20.60
2009,05,31,14,35,20.60
2009,05,31,14,36,20.60
2009,05,31,14,37,20.60
2009,05,31,14,38,20.60
2009,05,31,14,39,20.60
2009,05,31,14,40,20.60
2009,05,31,14,41,20.60
2009,05,31,14,42,20.60
2009,05,31,14,43,20.60
2009,05,31,14,44,20.60
2009,05,31,14,45,20.70
2009,05,31,14,46,20.70
2009,05,31,14,47,20.60
2009,05,31,14,48,20.60
2009,05,31,14,49,20.60
2009,05,31,14,50,20.60
2009,05,31,14,51,20.60
2009,05,31,14,52,20.50
2009,05,31,14,53,20.60
2009,05,31,14,54,20.60
2009,05,31,14,55,20.60
2009,05,31,14,56,20.60
2009,05,31,14,57,20.70
2009,05,31,14,58,20.80
2009,05,31,14,59,20.80
2009,05,31,15,00,20.80
2009,05,31,15,01,20.80
2009,05,31,15,02,20.90
2009,05,31,15,03,20.90
2009,05,31,15,04,21.00
2009,05,31,15,05,21.10
2009,05,31,15,06,21.10
2009,05,31,15,07,21.10
2009,05,31,15,08,21.20
2009,05,31,15,09,21.20
2009,05,31,15,10,21.30
2009,05,31,15,11,21.30
2009,05,31,15,12,21.30
2009,05,31,15,13,21.30
2009,05,31,15,14,21.30
2009,05,31,15,15,21.40
2009,05,31,15,16,21.40
2009,05,31,15,17,21.50
2009,05,31,15,18,21.50
2009,05,31,15,19,21.60
2009,05,31,15,20,21.70
2009,05,31,15,21,21.80
2009,05,31,15,22,21.90
2009,05,31,15,23,21.90
2009,05,31,15,24,22.00
2009,05,31,15,25,22.10
2009,05,31,15,26,22.10
2009,05,31,15,27,22.20
2009,05,31,15,28,22.20
2009,05,31,15,29,22.20
2009,05,31,15,30,22.20
2009,05,31,15,31,22.20
2009,05,31,15,32,22.20
2009,05,31,15,33,22.20
2009,05,31,15,34,22.20
2009,05,31,15,35,22.30
2009,05,31,15,36,22.30
2009,05,31,15,37,22.30
2009,05,31,15,38,22.30
2009,05,31,15,39,22.30
2009,05,31,15,40,22.30
2009,05,31,15,41,22.20
2009,05,31,15,42,22.20
2009,05,31,15,43,22.20
2009,05,31,15,44,22.20
2009,05,31,15,45,22.10
2009,05,31,15,46,22.10
2009,05,31,15,47,22.10
2009,05,31,15,48,22.10
2009,05,31,15,49,22.00
2009,05,31,15,50,22.00
2009,05,31,15,51,22.00
2009,05,31,15,52,21.90
2009,05,31,15,53,22.00
2009,05,31,15,54,22.00
2009,05,31,15,55,22.00
2009,05,31,15,56,22.10
2009,05,31,15,57,22.10
2009,05,31,15,58,22.20
2009,05,31,15,59,22.30
2009,05,31,16,00,22.30
2009,05,31,16,01,22.30
2009,05,31,16,02,22.20
2009,05,31,16,03,22.20
2009,05,31,16,04,22.20
2009,05,31,16,05,22.20
2009,05,31,16,06,22.20
2009,05,31,16,07,22.20
2009,05,31,16,08,22.10
2009,05,31,16,09,22.10
2009,05,31,16,10,22.00
2009,05,31,16,11,21.90
2009,05,31,16,12,21.90
2009,05,31,16,13,21.90
2009,05,31,16,14,21.90
2009,05,31,16,15,21.90
2009,05,31,16,16,21.80
2009,05,31,16,17,21.80
2009,05,31,16,18,21.80
2009,05,31,16,19,21.80
2009,05,31,16,20,21.70
2009,05,31,16,21,21.70
2009,05,31,16,22,21.70
2009,05,31,16,23,21.70
2009,05,31,16,24,21.70
2009,05,31,16,25,21.60
2009,05,31,16,26,21.60
2009,05,31,16,27,21.60
2009,05,31,16,28,21.60
2009,05,31,16,29,21.60
2009,05,31,16,30,21.60
2009,05,31,16,31,21.60
2009,05,31,16,32,21.60
2009,05,31,16,33,21.50
2009,05,31,16,34,21.50
2009,05,31,16,35,21.50
2009,05,31,16,36,21.50
2009,05,31,16,37,21.60
2009,05,31,16,38,21.50
2009,05,31,16,39,21.50
2009,05,31,16,40,21.50
2009,05,31,16,41,21.50
2009,05,31,16,42,21.40
2009,05,31,16,43,21.40
2009,05,31,16,44,21.40
2009,05,31,16,45,21.40
2009,05,31,16,46,21.40
2009,05,31,16,47,21.30
2009,05,31,16,48,21.30
2009,05,31,16,49,21.30
2009,05,31,16,50,21.20
2009,05,31,16,51,21.20
2009,05,31,16,52,21.30
2009,05,31,16,53,21.30
2009,05,31,16,54,21.30
2009,05,31,16,55,21.30
2009,05,31,16,56,21.30
2009,05,31,16,57,21.30
2009,05,31,16,58,21.40
2009,05,31,16,59,21.40
2009,05,31,17,00,21.40
2009,05,31,17,01,21.40
2009,05,31,17,02,21.40
2009,05,31,17,03,21.40
2009,05,31,17,04,21.40
2009,05,31,17,05,21.40
2009,05,31,17,06,21.40
2009,05,31,17,07,21.40
2009,05,31,17,08,21.40
2009,05,31,17,09,21.40
2009,05,31,17,10,21.50
2009,05,31,17,11,21.50
2009,05,31,17,12,21.60
2009,05,31,17,13,21.60
2009,05,31,17,14,21.60
2009,05,31,17,15,21.70
2009,05,31,17,16,21.70
2009,05,31,17,17,21.70
2009,05,31,17,18,21.80
2009,05,31,17,19,21.80
2009,05,31,17,20,21.80
2009,05,31,17,21,21.80
2009,05,31,17,22,21.80
2009,05,31,17,23,21.80
2009,05,31,17,24,21.80
2009,05,31,17,25,21.80
2009,05,31,17,26,21.80
2009,05,31,17,27,21.70
2009,05,31,17,28,21.70
2009,05,31,17,29,21.70
2009,05,31,17,30,21.70
2009,05,31,17,31,21.60
2009,05,31,17,32,21.60
2009,05,31,17,33,21.50
2009,05,31,17,34,21.50
2009,05,31,17,35,21.50
2009,05,31,17,36,21.40
2009,05,31,17,37,21.40
2009,05,31,17,38,21.40
2009,05,31,17,39,21.40
2009,05,31,17,40,21.40
2009,05,31,17,41,21.50
2009,05,31,17,42,21.50
2009,05,31,17,43,21.50
2009,05,31,17,44,21.60
2009,05,31,17,45,21.60
2009,05,31,17,46,21.60
2009,05,31,17,47,21.70
2009,05,31,17,48,21.70
2009,05,31,17,49,21.70
2009,05,31,17,50,21.70
2009,05,31,17,51,21.70
2009,05,31,17,52,21.80
2009,05,31,17,53,21.80
2009,05,31,17,54,21.80
2009,05,31,17,55,21.80
2009,05,31,17,56,21.90
2009,05,31,17,57,22.00
2009,05,31,17,58,22.10
2009,05,31,17,59,22.10
2009,05,31,18,00,22.20
2009,05,31,18,01,22.30
2009,05,31,18,02,22.30
2009,05,31,18,03,22.40
2009,05,31,18,04,22.40
2009,05,31,18,05,22.40
2009,05,31,18,06,22.50
2009,05,31,18,07,22.50
2009,05,31,18,08,22.60
2009,05,31,18,09,22.60
2009,05,31,18,10,22.60
2009,05,31,18,11,22.70
2009,05,31,18,12,22.70
2009,05,31,18,13,22.70
2009,05,31,18,14,22.80
2009,05,31,18,15,22.80
2009,05,31,18,16,22.80
2009,05,31,18,17,22.80
2009,05,31,18,18,22.90
2009,05,31,18,19,22.80
2009,05,31,18,20,22.80
2009,05,31,18,21,22.80
2009,05,31,18,22,22.80
2009,05,31,18,23,22.80
2009,05,31,18,24,22.90
2009,05,31,18,25,22.90
2009,05,31,18,26,22.90
2009,05,31,18,27,22.90
2009,05,31,18,28,22.90
2009,05,31,18,29,22.80
2009,05,31,18,30,22.80
2009,05,31,18,31,22.80
2009,05,31,18,32,22.70
2009,05,31,18,33,22.70
2009,05,31,18,34,22.60
2009,05,31,18,35,22.60
2009,05,31,18,36,22.60
2009,05,31,18,37,22.60
2009,05,31,18,38,22.70
2009,05,31,18,39,22.70
2009,05,31,18,40,22.70
2009,05,31,18,41,22.80
2009,05,31,18,42,22.80
2009,05,31,18,43,22.80
2009,05,31,18,44,22.90
2009,05,31,18,45,23.00
2009,05,31,18,46,23.10
2009,05,31,18,47,23.10
2009,05,31,18,48,23.10
2009,05,31,18,49,23.20
2009,05,31,18,50,23.20
2009,05,31,18,51,23.10
2009,05,31,18,52,23.10
2009,05,31,18,53,23.00
2009,05,31,18,54,22.90
2009,05,31,18,55,22.80
2009,05,31,18,56,22.80
2009,05,31,18,57,22.70
2009,05,31,18,58,22.60
2009,05,31,18,59,22.60
2009,05,31,19,00,22.50
2009,05,31,19,01,22.50
2009,05,31,19,02,22.40
2009,05,31,19,03,22.40
2009,05,31,19,04,22.30
2009,05,31,19,05,22.30
2009,05,31,19,06,22.30
2009,05,31,19,07,22.30
2009,05,31,19,08,22.30
2009,05,31,19,09,22.30
2009,05,31,19,10,22.20
2009,05,31,19,11,22.30
2009,05,31,19,12,22.30
2009,05,31,19,13,22.30
2009,05,31,19,14,22.20
2009,05,31,19,15,22.20
2009,05,31,19,16,22.20
2009,05,31,19,17,22.20
2009,05,31,19,18,22.20
2009,05,31,19,19,22.10
2009,05,31,19,20,22.00
2009,05,31,19,21,22.00
2009,05,31,19,22,21.90
2009,05,31,19,23,21.90
2009,05,31,19,24,21.80
2009,05,31,19,25,21.80
2009,05,31,19,26,21.80
2009,05,31,19,27,21.80
2009,05,31,19,28,21.80
2009,05,31,19,29,21.80
2009,05,31,19,30,21.80
2009,05,31,19,31,21.80
2009,05,31,19,32,21.80
2009,05,31,19,33,21.80
2009,05,31,19,34,21.80
2009,05,31,19,35,21.80
2009,05,31,19,36,21.80
2009,05,31,19,37,21.80
2009,05,31,19,38,21.80
2009,05,31,19,39,21.80
2009,05,31,19,40,21.80
2009,05,31,19,41,21.90
2009,05,31,19,42,21.90
2009,05,31,19,43,21.90
2009,05,31,19,44,21.90
2009,05,31,19,45,21.90
2009,05,31,19,46,21.90
2009,05,31,19,47,21.90
2009,05,31,19,48,21.90
2009,05,31,19,49,21.90
2009,05,31,19,50,21.90
2009,05,31,19,51,21.90
2009,05,31,19,52,21.90
2009,05,31,19,53,21.80
2009,05,31,19,54,21.80
2009,05,31,19,55,21.80
2009,05,31,19,56,21.70
2009,05,31,19,57,21.70
2009,05,31,19,58,21.60
2009,05,31,19,59,21.60
2009,05,31,20,00,21.50
2009,05,31,20,01,21.50
2009,05,31,20,02,21.50
2009,05,31,20,03,21.50
2009,05,31,20,04,21.50
2009,05,31,20,05,21.50
2009,05,31,20,06,21.50
2009,05,31,20,07,21.50
2009,05,31,20,08,21.50
2009,05,31,20,09,21.50
2009,05,31,20,10,21.50
2009,05,31,20,11,21.50
2009,05,31,20,12,21.50
